Flag for U.S.A. Weather past 2 weeks in Anaheim, California, U.S.A.

Now
76 °F

Sunny.


Feels Like: 78 °F
Forecast: 64 / 82 °F
Wind: 8 mph from Southwest

Location: Fullerton Municipal Airport

Current Time: Aug 22, 2014 at 7:13:13 PM

Latest Report: Aug 22, 2014 at 6:53 PM


Visibility: 10 mi

Pressure: 29.90 "Hg

Humidity: 62%

Dew point: 62 °F

Location of AnaheimLocation

Historic Weather in Anaheim — Graph

°F

Anaheim temperature yesterday

Maximum temperature yesterday: 87 °F (at 3:53 PM)
Minimum temperature yesterday: 67 °F (at 4:53 AM)
Average temperature yesterday: 75 °F

Past Weeks' High & Low Weather Summary

 TemperatureHumidityPressure
High95 °F (Aug 15, 3:53 PM)87% (Aug 18, 6:53 AM)30.00 "Hg (Aug 18, 6:53 AM)
Low66 °F (Aug 14, 3:53 AM)18% (Aug 16, 3:53 PM)29.78 "Hg (Aug 18, 4:53 PM)
Average76 °F62%29.91 "Hg
* Reported Aug 7 5:53 PM — Aug 22 5:53 PM, Anaheim, Weather by CustomWeather, © 2014

Note: Actual official high and low records may vary slightly from our data, if they occured in-between our weather recording intervals... More about our weather records

Advertising

Anaheim weather history for previous 24 hours

 ConditionsComfort  
Time TempWeatherWind HumidityBarometerVisibility
5:53 PM
Aug 22
80 °FSunny.10 mph54%29.89 "Hg10 mi
4:53 PM84 °FSunny.9 mph45%29.89 "Hg10 mi
3:53 PM83 °FSunny.7 mph50%29.89 "Hg10 mi
2:53 PM84 °FSunny.9 mph48%29.91 "Hg10 mi
1:53 PM83 °FSunny.8 mph51%29.93 "Hg10 mi
12:53 PM83 °FSunny.6 mph51%29.95 "Hg10 mi
11:53 AM81 °FSunny.6 mph54%29.96 "Hg10 mi
10:53 AM80 °FSunny.8 mph56%29.97 "Hg10 mi
9:53 AM76 °FSunny.3 mph62%29.96 "Hg10 mi
8:53 AM74 °FSunny.3 mph64%29.95 "Hg10 mi
7:53 AM71 °FSunny.No wind73%29.95 "Hg10 mi
6:53 AM69 °FClear.No wind76%29.93 "Hg10 mi
5:53 AM69 °FClear.No wind76%29.92 "Hg10 mi
4:53 AM69 °FClear.No wind76%29.91 "Hg10 mi
3:53 AM69 °FClear.No wind76%29.92 "Hg10 mi
2:53 AM70 °FClear.No wind73%29.93 "Hg10 mi
1:53 AM70 °FClear.No wind73%29.93 "Hg10 mi
12:53 AM71 °FClear.No wind71%29.93 "Hg10 mi
11:53 PM
Aug 21
72 °FClear.No wind68%29.94 "Hg10 mi
10:53 PM73 °FClear.5 mph69%29.94 "Hg10 mi
9:53 PM74 °FClear.No wind67%29.94 "Hg10 mi
8:53 PM74 °FClear.3 mph64%29.93 "Hg10 mi
7:53 PM75 °FSunny.3 mph64%29.90 "Hg10 mi
Weather by CustomWeather, © 2014

See weather overviewHow to use our weather pages